Weather in Yaylyu

Russia / Altai Republic     51°46′08″N   87°36′11″E
temp.,
°C
wind,
m/s
gust,
m/s
humid.,
%
clouds,
%
prec.,
mm/h
press.,
hPa
HPBL,
m
19 april, mon
mon1901:000sse45782 0.0 101464
04:00+3s497010 0.0 1011149
07:00+5s41166100 0.0 1007351
10:00+5wnw51190100 0.4 10071191
13:00−3nw3892100 8.6 10191072
16:00−3nnw2290100 3.5 1020640
19:00−5nnw2394100 5.4 1020438
22:00−6nnw1297100 1.7 1021211
20 april, tue
tue2001:00−7nw1198100 3.0 1022135
04:00−8nw1298100 0.6 1022126
07:00−9nnw2295100 1.3 1024263
10:00−7nnw2287100 0.4 1024839
13:00−6nnw3385100 1.1 10241099
16:00−6nnw3388100 0.8 1024929
19:00−7nnw2393100 1.7 1025559
22:00−12nnw1199100 0.4 102813
21 april, wed
wed2101:00−14sse119890 0.5 102910
04:00−17sse229866 0.0 102917
07:00−16sse22929 0.0 102746
10:00−6nnw117874 0.0 1023594
13:00−3nnw2179100 0.1 10211028
16:00−3nnw227799 0.1 10201019
19:00−4nnw2383100 0.3 1022665
22:00−7nw1196100 0.1 102511
22 april, thu
thu2201:00−7wnw1198100 0.3 102547
04:00−8wnw1198100 0.4 102751
07:00−7wnw1195100 1.0 1029170
10:00−4nw2288100 0.6 1030781
13:00−3nnw3387100 1.6 10301041
16:00−2n3483100 0.8 10311046
19:00−2nnw3586100 1.6 1033674
22:00−7sw1197100 0.3 103710
23 april, fri
fri2301:00−7ssw1198100 0.4 103616
04:00−8s119998 0.1 103743
07:00−7ssw119693 0.3 103782
10:00−3nw1183100 0.1 1035832
13:00−2nnw2285100 0.4 1035858
16:00−1nnw2282100 0.3 1034808
19:00−2nw2289100 0.4 1034422
22:00−3wnw1298100 0.8 1034120